Simultaneous Nadir Overpasses (SNOs) Predictions

Prediction of SNOs over PacNW region [( 10.00, 139.50) to ( 22.70, 165.60)] between AQUA and NPP Satellites:

Table of predicted SNOs over PacNW region for the next 30.0 days since TLE Epoch: 11/26/2016
Index Date (AQUA) Time (AQUA) AQUA Lat,Lon Date (NPP) Time (NPP) NPP Lat,Lon Distance(km) Time Diff (sec)
1 11/29/2016 15:09:32 22.60, 159.83 11/29/2016 15:11:42 23.19, 157.13 283.79 130
2 12/02/2016 03:31:23 22.69, 147.50 12/02/2016 03:27:53 22.42, 145.73 183.91 210
3 12/07/2016 15:58:58 22.61, 147.48 12/07/2016 16:02:24 23.28, 144.46 317.58 206
4 12/10/2016 02:41:55 22.67, 159.87 12/10/2016 02:38:26 27.10, 157.21 560.68 209
5 12/15/2016 15:09:30 22.63, 159.85 12/15/2016 15:11:39 23.22, 157.13 286.85 129
6 12/18/2016 03:31:18 22.64, 147.54 12/18/2016 03:27:49 22.44, 145.72 188.14 209
7 12/23/2016
